CW9825 Weather Reports


time (UTC)temp
F
wind
direction
speed
knots
gust
knots
rain 1hr
in
rain 24hr
in
rain mn
in
humidity
%
barometer
mb
20260504014524 67 213 7.0 13.9 0.00 0.00 0.00 34 996.6
20260504014022 68 200 7.0 13.0 0.00 0.00 0.00 34 996.8
20260504013521 68 213 8.7 13.0 0.00 0.00 0.00 34 996.9
20260504013020 68 213 7.0 13.9 0.00 0.00 0.00 33 997.0
20260504012522 69 208 7.8 13.9 0.00 0.00 0.00 33 997.2
20260504012019 69 154 7.0 10.4 0.00 0.00 0.00 33 997.3
20260504011518 69 242 6.1 13.9 0.00 0.00 0.00 32 997.4
20260504011016 70 225 5.2 13.9 0.00 0.00 0.00 32 997.5
20260504010516 70 188 5.2 10.4 0.00 0.00 0.00 32 997.5
20260504010015 70 144 4.3 12.2 0.00 0.00 0.00 31 997.8
20260504005514 70 190 3.5 12.2 0.00 0.00 0.00 31 997.9
20260504005014 71 182 4.3 8.7 0.00 0.00 0.00 30 998.0
20260504004514 71 238 2.6 8.7 0.00 0.00 0.00 30 998.1
20260504004015 71 237 0.9 12.2 0.00 0.00 0.00 30 998.2
20260504003511 71 137 3.5 12.2 0.00 0.00 0.00 30 998.4
20260504003011 71 168 2.6 9.6 0.00 0.00 0.00 29 998.5
20260504002509 71 225 3.5 9.6 0.00 0.00 0.00 29 998.6
20260504002009 71 227 5.2 10.4 0.00 0.00 0.00 29 998.7
20260504001510 72 271 2.6 13.9 0.00 0.00 0.00 29 998.8
20260504001007 72 228 7.0 13.9 0.00 0.00 0.00 29 998.8
20260504000510 72 259 4.3 9.6 0.00 0.00 0.00 29 999.0
20260504000007 72 63 2.6 13.0 0.00 0.00 0.00 29 999.0
20260503235505 72 279 5.2 12.2 0.00 0.00 0.00 29 999.2
20260503235005 72 260 4.3 12.2 0.00 0.00 0.00 29 999.3
20260503234508 72 167 4.3 12.2 0.00 0.00 0.00 29 999.3
20260503234004 72 242 6.1 12.2 0.00 0.00 0.00 29 999.5
20260503233503 72 243 6.1 12.2 0.00 0.00 0.00 29 999.6
20260503233002 72 214 4.3 17.4 0.00 0.00 0.00 29 999.7
20260503232501 72 279 7.0 17.4 0.00 0.00 0.00 29 999.7
20260503232101 72 202 7.0 16.5 0.00 0.00 0.00 29 999.8
20260503231600 72 225 6.1 13.9 0.00 0.00 0.00 29 999.9
20260503231100 72 302 5.2 15.6 0.00 0.00 0.00 29 999.9
20260503230559 72 257 7.0 14.8 0.00 0.00 0.00 29 1000.1
20260503225557 73 262 6.1 18.2 0.00 0.00 0.00 29 1000.3
20260503225059 73 328 7.8 18.2 0.00 0.00 0.00 28 1000.4
20260503224556 73 248 5.2 16.5 0.00 0.00 0.00 29 1000.5
20260503224055 73 296 6.1 15.6 0.00 0.00 0.00 28 1000.4
20260503223555 73 289 6.1 14.8 0.00 0.00 0.00 29 1000.5
20260503223054 73 237 5.2 14.8 0.00 0.00 0.00 28 1000.6
20260503222552 73 297 7.8 16.5 0.00 0.00 0.00 28 1000.6
20260503222051 72 283 7.8 21.7 0.00 0.00 0.00 29 1000.6
20260503221551 72 258 6.1 21.7 0.00 0.00 0.00 29 1000.8
20260503221050 72 273 3.5 13.9 0.00 0.00 0.00 30 1000.9
20260503220549 72 208 5.2 13.9 0.00 0.00 0.00 30 1001.2
20260503220048 72 259 5.2 16.5 0.00 0.00 0.00 30 1001.2
20260503215547 72 59 5.2 16.5 0.00 0.00 0.00 30 1001.4
20260503215048 72 245 5.2 16.5 0.00 0.00 0.00 30 1001.6
20260503214554 72 196 6.1 16.5 0.00 0.00 0.00 30 1001.6
20260503214048 72 282 6.1 16.5 0.00 0.00 0.00 30 1001.7
20260503213544 73 263 8.7 14.8 0.00 0.00 0.00 29 1001.8
20260503213106 72 279 6.1 13.9 0.00 0.00 0.00 30 1001.9
20260503212542 72 294 6.1 13.0 0.00 0.00 0.00 30 1002.0
20260503212040 72 209 4.3 13.9 0.00 0.00 0.00 31 1002.1
20260503211602 71 285 7.0 20.0 0.00 0.00 0.00 31 1002.3
20260503211042 71 283 7.8 20.0 0.00 0.00 0.00 31 1002.5
20260503210538 72 267 4.3 14.8 0.00 0.00 0.00 31 1002.5
20260503210038 72 246 8.7 14.8 0.00 0.00 0.00 30 1002.6
20260503205538 72 246 7.8 14.8 0.00 0.00 0.00 31 1002.7
20260503205039 71 243 5.2 14.8 0.00 0.00 0.00 33 1002.7
20260503204552 71 252 6.1 14.8 0.00 0.00 0.00 32 1002.8
20260503204037 71 279 6.1 16.5 0.00 0.00 0.00 33 1002.8
20260503203533 71 196 4.3 16.5 0.00 0.00 0.00 32 1002.9
20260503203035 70 267 7.8 13.9 0.00 0.00 0.00 32 1003.0
20260503202531 71 284 4.3 13.0 0.00 0.00 0.00 33 1003.1
20260503202030 71 281 4.3 13.9 0.00 0.00 0.00 32 1003.3
20260503201531 71 293 7.0 13.9 0.00 0.00 0.00 32 1003.5
20260503201028 71 55 2.6 9.6 0.00 0.00 0.00 33 1003.5
20260503200527 71 286 5.2 10.4 0.00 0.00 0.00 33 1003.8
20260503200128 71 265 3.5 10.4 0.00 0.00 0.00 33 1003.9
20260503195525 70 284 3.5 13.0 0.00 0.00 0.00 33 1004.2
20260503195024 70 285 3.5 15.6 0.00 0.00 0.00 34 1004.4
20260503194525 70 278 4.3 12.2 0.00 0.00 0.00 35 1004.6
20260503194023 70 280 5.2 13.0 0.00 0.00 0.00 33 1004.6
20260503193523 69 216 5.2 13.0 0.00 0.00 0.00 34 1004.8
20260503193020 70 298 4.3 12.2 0.00 0.00 0.00 33 1004.8
20260503192521 70 284 4.3 13.0 0.00 0.00 0.00 33 1004.8
20260503192020 69 217 6.1 13.0 0.00 0.00 0.00 33 1004.8
20260503191519 69 291 6.1 12.2 0.00 0.00 0.00 33 1005.1
20260503191021 69 269 5.2 14.8 0.00 0.00 0.00 34 1005.1
20260503190517 69 302 5.2 14.8 0.00 0.00 0.00 33 1005.3
20260503190016 69 182 4.3 14.8 0.00 0.00 0.00 33 1005.4
20260503185520 69 226 5.2 15.6 0.00 0.00 0.00 34 1005.5
20260503185014 68 264 6.1 15.6 0.00 0.00 0.00 34 1005.5
20260503184513 68 336 4.3 13.9 0.00 0.00 0.00 34 1005.6
20260503184015 67 263 3.5 13.0 0.00 0.00 0.00 33 1005.9
20260503183512 67 296 5.2 13.0 0.00 0.00 0.00 34 1006.0
20260503183012 67 263 7.0 13.0 0.00 0.00 0.00 33 1006.2
20260503182514 67 278 7.0 13.0 0.00 0.00 0.00 33 1006.2
20260503182010 67 331 4.3 13.0 0.00 0.00 0.00 35 1006.4
20260503181509 67 300 4.3 13.0 0.00 0.00 0.00 34 1006.5
20260503181008 66 286 3.5 12.2 0.00 0.00 0.00 35 1006.6
20260503180507 66 257 7.0 12.2 0.00 0.00 0.00 34 1006.8
20260503180016 65 301 5.2 13.0 0.00 0.00 0.00 34 1006.8
20260503175505 65 266 7.0 13.0 0.00 0.00 0.00 35 1006.9
20260503175004 65 228 4.3 12.2 0.00 0.00 0.00 37 1007.0
20260503174512 65 275 7.0 12.2 0.00 0.00 0.00 36 1007.2
20260503174004 64 271 3.5 10.4 0.00 0.00 0.00 37 1007.2
20260503173501 64 269 4.3 10.4 0.00 0.00 0.00 37 1007.2
20260503173131 64 251 6.1 10.4 0.00 0.00 0.00 39 1007.5
20260503172559 64 265 3.5 10.4 0.00 0.00 0.00 39 1007.4
20260503172102 64 262 4.3 9.6 0.00 0.00 0.00 39 1007.4
20260503171557 64 317 5.2 9.6 0.00 0.00 0.00 39 1007.5
20260503171056 63 296 4.3 8.7 0.00 0.00 0.00 39 1007.7
20260503170554 62 270 0.9 6.1 0.00 0.00 0.00 40 1007.8
20260503150530 55 318 4.3 7.8 0.00 0.00 0.00 52 1009.2
20260503131002 45 325 2.6 7.0 0.00 0.00 0.00 64 1009.3
20260503130504 45 302 2.6 7.0 0.00 0.00 0.00 65 1009.4
20260503110545 43 341 5.2 10.4 0.00 0.00 0.00 66 1008.2
20260503081517 47 306 6.1 10.4 0.00 0.00 0.00 71 1007.4
20260503081016 48 340 7.0 12.2 0.00 0.00 0.00 71 1007.2
20260503080513 48 345 5.2 12.2 0.00 0.00 0.00 70 1007.2
20260503072506 49 317 6.1 13.0 0.00 0.00 0.00 69 1007.1
20260503072004 49 348 7.0 13.0 0.00 0.00 0.00 68 1007.1
20260503071506 50 331 7.0 13.0 0.00 0.00 0.00 68 1007.1
20260503071002 50 323 7.8 14.8 0.00 0.00 0.00 67 1007.1
20260503070500 51 296 8.7 14.8 0.00 0.00 0.00 67 1006.9
20260503070115 51 348 7.0 13.0 0.00 0.00 0.00 66 1006.9
20260503060103 51 334 6.1 13.9 0.00 0.00 0.00 66 1006.5
20260503055049 52 310 7.0 13.0 0.00 0.00 0.00 64 1006.5
20260503054556 53 316 7.0 13.0 0.00 0.00 0.00 63 1006.3
20260503054046 53 324 7.0 14.8 0.00 0.00 0.00 61 1006.3
20260503053545 54 336 7.8 14.8 0.00 0.00 0.00 60 1006.2
20260503053043 55 350 7.8 13.0 0.00 0.00 0.00 59 1006.1
20260503052542 55 317 7.8 13.0 0.00 0.00 0.00 59 1005.9
20260503052040 55 18 6.1 12.2 0.00 0.00 0.00 59 1005.8
20260503051547 55 360 7.0 16.5 0.00 0.00 0.00 59 1005.8
20260503051041 55 10 5.2 16.5 0.00 0.00 0.00 59 1005.7
20260503050538 55 323 7.8 13.9 0.00 0.00 0.00 59 1005.7
20260503050037 55 17 7.0 17.4 0.00 0.00 0.00 59 1005.6
20260503045537 55 349 6.1 17.4 0.00 0.00 0.00 58 1005.5
20260503045036 56 24 7.0 13.9 0.00 0.00 0.00 58 1005.5
20260503044536 56 40 7.8 19.1 0.00 0.00 0.00 57 1005.5
20260503044036 56 360 8.7 19.1 0.00 0.00 0.00 57 1005.4
20260503043536 56 341 7.8 18.2 0.00 0.00 0.00 57 1005.4
20260503043036 56 34 8.7 15.6 0.00 0.00 0.00 57 1005.3
20260503042536 56 336 6.1 14.8 0.00 0.00 0.00 57 1005.4
20260503042036 56 311 7.8 21.7 0.00 0.00 0.00 57 1005.4
20260503041536 56 355 7.8 21.7 0.00 0.00 0.00 57 1005.3
20260503041038 57 325 10.4 20.0 0.00 0.00 0.00 57 1005.2
20260503040535 57 339 8.7 20.0 0.00 0.00 0.00 56 1005.1
20260503040035 57 318 7.8 13.9 0.00 0.00 0.00 56 1005.1
20260503035637 57 342 7.8 13.9 0.00 0.00 0.00 56 1005.1
20260503035035 57 23 6.1 13.9 0.00 0.00 0.00 56 1004.9
20260503034538 57 347 7.0 14.8 0.00 0.00 0.00 56 1004.9
20260503034035 57 346 6.1 20.0 0.00 0.00 0.00 57 1004.9
20260503033534 57 323 9.6 20.0 0.00 0.00 0.00 57 1005.0
20260503033045 57 336 8.7 14.8 0.00 0.00 0.00 57 1004.7
20260503032534 58 336 7.0 14.8 0.00 0.00 0.00 57 1004.8
20260503032034 58 313 7.8 15.6 0.00 0.00 0.00 56 1004.7
20260503031537 59 344 8.7 20.9 0.00 0.00 0.00 54 1004.7
20260503031034 60 339 9.6 20.9 0.00 0.00 0.00 52 1004.6
20260503030534 61 333 11.3 22.6 0.00 0.00 0.00 49 1004.5
20260503030036 62 336 13.9 23.5 0.00 0.00 0.00 46 1004.4
20260503025534 63 350 8.7 15.6 0.00 0.00 0.00 45 1004.4
20260503025035 63 348 8.7 14.8 0.00 0.00 0.00 43 1004.3
20260503024543 64 336 7.0 14.8 0.00 0.00 0.00 42 1004.2
20260503024033 64 313 7.0 13.0 0.00 0.00 0.00 41 1004.0
20260503023533 64 338 6.1 11.3 0.00 0.00 0.00 41 1004.0
20260503023033 65 318 6.1 11.3 0.00 0.00 0.00 40 1003.8
20260503022532 65 329 6.1 11.3 0.00 0.00 0.00 39 1003.8
20260503022036 65 355 6.1 12.2 0.00 0.00 0.00 39 1003.7
20260503021535 65 325 6.1 10.4 0.00 0.00 0.00 39 1003.6
20260503021032 66 5 4.3 9.6 0.00 0.00 0.00 38 1003.6
20260503020534 66 325 4.3 10.4 0.00 0.00 0.00 37 1003.5
20260503020032 66 329 5.2 13.0 0.00 0.00 0.00 37 1003.5
20260503015532 66 325 5.2 13.0 0.00 0.00 0.00 36 1003.4
20260503015035 67 328 5.2 10.4 0.00 0.00 0.00 36 1003.2